Location: Mahannah Oil Field
(37.4664°N, 96.6003°W)
Time: 08:53:59
(UTC+00:00)

deb Explorer IX - Pass Details

Date: 25 January 2021
Orbit: 538 x 1101 km, 38.8° (Epoch: 07 March)

Event Time Altitude Azimuth Distance (km) Brightness Sun altitude
Rises 00:50:30 0° 258° (WSW) 3,714 ? -13.7°
Reaches altitude 10° 00:53:20 10° 258° (WSW) 2,689 ? -14.2°
Maximum altitude 00:59:47 88° 347° (NNW) 860 ? -15.5°
Enters shadow 01:03:07 26° 78° (ENE) 1,537 ? -16.1°
